"Timestamp","TZ","WindDir_Mean (deg)","WindSpd_Mean (km/h)","WindSpd_Min (km/h)","WindSpd_Max (km/h)","Temp_Mean (deg)","RH_Mean (%)","MSLP_Mean (hPa)","Rain_Acc (mm)","Rain_Intensity (mm/h)","Hail_Acc (hits/cm2)","Hail_Intensity (hits/cm2hr)","Solar_Mean (W/m2)"
2022/06/25 00:00:00.002,n,0,4.32,2.52,7.2,11.5,73.9,1022.02,0,0,0,0,0.031357
2022/06/25 00:01:00.000,n,254,2.88,1.44,3.6,11.5,74.3,1022.12,0,0,0,0,0.028763
2022/06/25 00:02:00.000,n,206,1.44,0,4.68,11.5,74.4,1022.12,0,0,0,0,0.032234
2022/06/25 00:03:00.000,n,109,3.24,1.44,3.6,11.5,74.4,1022.12,0,0,0,0,0.031357
2022/06/25 00:04:00.006,n,20,1.8,1.08,3.6,11.5,74.6,1022.02,0,0,0,0,0.02964
2022/06/25 00:05:00.003,n,271,1.08,0.36,1.44,11.5,74.6,1022.02,0,0,0,0,0.030518
2022/06/25 00:06:00.000,n,45,2.88,0.72,6.12,11.5,74.7,1022.02,0,0,0,0,0.027885
2022/06/25 00:07:00.000,n,225,1.08,0.36,3.6,11.5,74.6,1022.02,0,0,0,0,0.027008
2022/06/25 00:08:00.011,n,110,2.52,2.16,2.88,11.5,74.5,1022.02,0,0,0,0,0.028763
2022/06/25 00:09:00.009,n,165,2.52,0.72,5.04,11.5,74.2,1022.02,0,0,0,0,0.031357
2022/06/25 00:10:00.000,n,153,2.52,1.08,5.4,11.4,74.3,1022.02,0,0,0,0,0.031357
2022/06/25 00:11:00.002,n,131,1.08,0.72,1.08,11.4,74.6,1022.02,0,0,0,0,0.027008
2022/06/25 00:12:00.000,n,135,1.8,1.44,1.8,11.4,74.5,1022.02,0,0,0,0,0.026169
2022/06/25 00:13:00.000,n,191,2.16,0.72,5.4,11.3,73.7,1022.02,0,0,0,0,0.026169
2022/06/25 00:14:00.000,n,146,1.8,0.72,4.68,11.3,73.2,1021.92,0,0,0,0,0.025253
2022/06/25 00:15:00.008,n,176,5.04,2.16,7.2,11.3,72.8,1021.92,0,0,0,0,0.025253
2022/06/25 00:16:00.005,n,31,2.88,2.52,3.6,11.3,73,1021.92,0,0,0,0,0.025253
2022/06/25 00:17:00.002,n,24,0.72,0,4.32,11.3,72.8,1021.92,0,0,0,0,0.027885
2022/06/25 00:18:00.000,n,53,2.52,1.08,5.76,11.3,73.4,1021.92,0,0,0,0,0.023537
2022/06/25 00:19:00.000,n,82,2.16,1.8,2.16,11.4,73.8,1021.92,0,0,0,0,0.02182
2022/06/25 00:20:00.000,n,156,3.6,1.44,6.48,11.4,73.5,1021.92,0,0,0,0,0.027046
2022/06/25 00:21:00.000,n,98,1.44,1.08,1.44,11.3,73.4,1021.92,0,0,0,0,0.032234
2022/06/25 00:22:00.004,n,148,1.08,0.36,2.52,11.3,73.7,1021.92,0,0,0,0,0.032234
2022/06/25 00:23:00.000,n,168,1.8,0.36,4.32,11.3,73.7,1021.92,0,0,0,0,0.030518
2022/06/25 00:24:00.000,n,281,1.44,1.08,1.44,11.3,73.7,1021.92,0,0,0,0,0.028763
2022/06/25 00:25:00.010,n,147,2.88,1.08,3.96,11.2,73.8,1021.92,0,0,0,0,0.031395
2022/06/25 00:26:00.007,n,59,1.8,0.36,5.76,11.2,73.9,1021.92,0,0,0,0,0.02964
2022/06/25 00:27:00.004,n,171,2.88,2.16,3.96,11.2,73.9,1021.92,0,0,0,0,0.027046
2022/06/25 00:28:00.002,n,240,0.72,0.36,5.04,11.1,74.1,1021.92,0,0,0,0,0.027046
2022/06/25 00:29:00.000,n,228,1.44,0.36,3.6,11.1,74.1,1021.92,0,0,0,0,0.02964
2022/06/25 00:30:00.000,n,181,2.16,0.72,3.96,11.1,74.2,1021.92,0,0,0,0,0.028763
2022/06/25 00:31:00.000,n,33,1.8,0.36,3.96,11.1,74.3,1021.92,0,0,0,0,0.031395
2022/06/25 00:32:00.007,n,320,0.72,0.36,3.96,11.1,74.3,1021.82,0,0,0,0,0.027885
2022/06/25 00:33:00.004,n,299,0.72,0.72,0.72,11.1,74.3,1021.92,0,0,0,0,0.027885
2022/06/25 00:34:00.002,n,271,1.44,1.44,1.8,11,74.2,1021.92,0,0,0,0,0.026169
2022/06/25 00:35:00.000,n,297,1.08,0.72,1.08,11,74.2,1021.82,0,0,0,0,0.027046
2022/06/25 00:36:00.013,n,296,0.72,0.72,0.72,11,74.2,1021.82,0,0,0,0,0.027046
2022/06/25 00:37:00.000,n,272,0.72,0.36,1.08,10.9,74.2,1021.82,0,0,0,0,0.027046
2022/06/25 00:38:00.000,n,290,0.36,0,0.72,10.9,74.6,1021.82,0,0,0,0,0.023537
2022/06/25 00:39:00.000,n,8,1.08,1.08,1.44,10.9,75.2,1021.82,0,0,0,0,0.023537
2022/06/25 00:40:00.001,n,103,1.8,1.08,2.52,11,75.6,1021.82,0,0,0,0,0.027885
2022/06/25 00:41:00.000,n,41,2.16,1.8,2.52,11,76.4,1021.82,0,0,0,0,0.026169
2022/06/25 00:42:00.000,n,44,1.8,1.8,2.16,11.1,77,1021.82,0,0,0,0,0.027046
2022/06/25 00:43:00.009,n,50,1.8,1.44,2.16,11.1,77.2,1021.82,0,0,0,0,0.025253
2022/06/25 00:44:00.006,n,102,1.08,0,2.16,11.1,77.2,1021.82,0,0,0,0,0.024414
2022/06/25 00:45:00.003,n,114,2.16,1.8,2.52,11.1,77.1,1021.82,0,0,0,0,0.027046
2022/06/25 00:46:00.001,n,125,0.72,0.72,1.08,11,77,1021.82,0,0,0,0,0.023537
2022/06/25 00:47:00.001,n,149,1.8,1.8,2.16,11,76.9,1021.82,0,0,0,0,0.020905
2022/06/25 00:48:00.000,n,146,2.16,2.16,2.52,10.9,76.8,1021.82,0,0,0,0,0.020905
2022/06/25 00:49:00.000,n,161,3.96,2.52,7.2,10.9,76.3,1021.82,0,0,0,0,0.027046
2022/06/25 00:50:00.007,n,156,6.12,2.16,6.48,10.8,76.1,1021.82,0,0,0,0,0.019188
2022/06/25 00:51:00.004,n,158,7.92,3.6,8.28,10.8,75,1021.82,0,0,0,0,0.02182
2022/06/25 00:52:00.001,n,159,5.76,3.24,7.92,10.8,74.6,1021.82,0,0,0,0,0.020905
2022/06/25 00:53:00.014,n,160,7.2,3.96,9,10.8,74.3,1021.82,0,0,0,0,0.028763
2022/06/25 00:54:00.007,n,162,2.88,2.52,2.88,10.7,74.2,1021.82,0,0,0,0,0.034866
2022/06/25 00:55:00.000,n,149,2.52,2.16,3.24,10.7,74,1021.82,0,0,0,0,0.033989
2022/06/25 00:56:00.001,n,175,4.32,2.88,7.56,10.7,74,1021.82,0,0,0,0,0.032234
2022/06/25 00:57:00.000,n,146,4.32,3.6,5.04,10.7,74.1,1021.82,0,0,0,0,0.030518
2022/06/25 00:58:00.000,n,154,6.12,3.24,8.28,10.7,74.2,1021.82,0,0,0,0,0.033112
2022/06/25 00:59:00.000,n,162,4.32,2.52,7.2,10.7,74.3,1021.82,0,0,0,0,0.032234
2022/06/25 01:00:00.007,n,178,2.88,1.44,6.12,10.7,74.3,1021.82,0,0,0,0,0.030518
2022/06/25 01:01:00.004,n,153,5.04,2.52,7.56,10.7,74.4,1021.82,0,0,0,0,0.038338
2022/06/25 01:02:00.000,n,151,5.76,3.6,7.56,10.7,74.1,1021.82,0,0,0,0,0.02964
2022/06/25 01:03:00.014,n,152,5.4,2.52,8.28,10.7,74,1021.82,0,0,0,0,0.02964
2022/06/25 01:04:00.000,n,151,6.48,3.6,7.92,10.7,73.8,1021.82,0,0,0,0,0.031395
2022/06/25 01:05:00.000,n,147,5.76,3.6,9,10.6,73.7,1021.72,0,0,0,0,0.026131
2022/06/25 01:06:00.004,n,158,5.04,2.88,8.28,10.7,73.2,1021.72,0,0,0,0,0.031395
2022/06/25 01:07:00.002,n,157,7.56,4.32,10.440002,10.7,73.2,1021.72,0,0,0,0,0.027885
2022/06/25 01:08:00.000,n,177,7.92,4.32,9.72,10.7,73,1021.72,0,0,0,0,0.028763
2022/06/25 01:09:00.000,n,167,3.24,1.44,6.84,10.7,72.8,1021.72,0,0,0,0,0.027885
2022/06/25 01:10:00.009,n,196,2.16,1.8,2.88,10.7,72.9,1021.82,0,0,0,0,0.02964
2022/06/25 01:11:00.010,n,77,0.72,0.36,1.08,10.7,72.9,1021.72,0,0,0,0,0.026131
2022/06/25 01:12:00.003,n,279,0.36,0.36,0.36,10.7,72.9,1021.72,0,0,0,0,0.025253
2022/06/25 01:13:00.001,n,128,2.52,2.16,2.52,10.7,73,1021.72,0,0,0,0,0.029602
2022/06/25 01:14:00.000,n,232,1.08,0.72,1.44,10.7,73.2,1021.72,0,0,0,0,0.033951
2022/06/25 01:15:00.000,n,130,1.44,1.44,1.44,10.7,73.2,1021.72,0,0,0,0,0.03479
2022/06/25 01:16:00.000,n,230,1.44,1.08,1.8,10.6,73.3,1021.72,0,0,0,0,0.033951
2022/06/25 01:17:00.006,n,171,2.88,2.52,3.24,10.6,73.5,1021.72,0,0,0,0,0.028725
2022/06/25 01:18:00.003,n,148,1.8,1.44,1.8,10.6,73.5,1021.62,0,0,0,0,0.032196
2022/06/25 01:19:00.001,n,157,6.12,3.96,8.64,10.6,73.6,1021.62,0,0,0,0,0.03479
2022/06/25 01:20:00.013,n,195,0.36,0.36,0.36,10.6,73.6,1021.62,0,0,0,0,0.033951
2022/06/25 01:21:00.012,n,138,3.24,2.88,3.96,10.6,73.8,1021.62,0,0,0,0,0.031319
2022/06/25 01:22:00.000,n,179,0.36,0.36,0.72,10.6,73.7,1021.62,0,0,0,0,0.030441
2022/06/25 01:23:00.000,n,164,6.84,4.32,9,10.6,73.6,1021.62,0,0,0,0,0.033073
2022/06/25 01:24:00.005,n,178,2.88,2.16,6.84,10.6,73.6,1021.62,0,0,0,0,0.032196
2022/06/25 01:25:00.002,n,152,7.92,3.6,10.08,10.6,73.7,1021.62,0,0,0,0,0.032196
2022/06/25 01:26:00.000,n,126,2.52,2.16,2.88,10.6,73.8,1021.62,0,0,0,0,0.028725
2022/06/25 01:27:00.000,n,226,1.44,1.08,2.16,10.6,73.7,1021.62,0,0,0,0,0.029602
2022/06/25 01:28:00.010,n,136,3.6,2.88,4.68,10.6,73.8,1021.62,0,0,0,0,0.030441
2022/06/25 01:29:00.007,n,203,2.88,2.52,4.32,10.6,73.6,1021.52,0,0,0,0,0.027847
2022/06/25 01:30:00.005,n,156,1.08,0.36,1.44,10.6,73.7,1021.52,0,0,0,0,0.028725
2022/06/25 01:31:00.002,n,228,2.16,1.8,2.52,10.5,73.7,1021.52,0,0,0,0,0.02697
2022/06/25 01:32:00.000,n,184,2.52,2.52,2.88,10.5,73.7,1021.52,0,0,0,0,0.028725
2022/06/25 01:33:00.000,n,200,3.6,2.52,6.48,10.5,73.7,1021.52,0,0,0,0,0.024376
2022/06/25 01:34:00.000,n,214,4.32,3.6,5.4,10.5,73.3,1021.52,0,0,0,0,0.02697
2022/06/25 01:35:00.000,n,160,2.16,1.44,6.12,10.5,73.3,1021.52,0,0,0,0,0.026093
2022/06/25 01:36:00.006,n,348,0.36,0.36,0.72,10.5,73.1,1021.52,0,0,0,0,0.02697
2022/06/25 01:37:00.003,n,175,2.16,1.44,2.52,10.5,73.2,1021.52,0,0,0,0,0.024376
2022/06/25 01:38:00.001,n,168,5.04,3.24,7.92,10.4,73.1,1021.52,0,0,0,0,0.028725
2022/06/25 01:39:00.013,n,200,0.72,0.36,1.8,10.4,73,1021.52,0,0,0,0,0.032234
2022/06/25 01:40:00.000,n,149,2.52,1.8,8.28,10.4,73,1021.52,0,0,0,0,0.033989
2022/06/25 01:41:00.000,n,195,4.68,3.6,7.2,10.5,72.8,1021.52,0,0,0,0,0.032234
2022/06/25 01:42:00.005,n,145,2.16,1.8,2.52,10.5,73,1021.52,0,0,0,0,0.034866
2022/06/25 01:43:00.002,n,169,3.96,2.88,8.64,10.5,72.9,1021.52,0,0,0,0,0.032234
2022/06/25 01:44:00.000,n,170,2.16,1.08,5.76,10.5,73,1021.52,0,0,0,0,0.033989
2022/06/25 01:45:00.000,n,227,0.36,0.36,0.72,10.5,73,1021.52,0,0,0,0,0.033112
2022/06/25 01:46:00.009,n,293,0.36,0.36,0.72,10.4,73,1021.52,0,0,0,0,0.033989
2022/06/25 01:47:00.006,n,114,1.44,1.08,1.8,10.4,73.1,1021.52,0,0,0,0,0.034866
2022/06/25 01:48:00.004,n,333,0.36,0,0.36,10.4,73.3,1021.52,0,0,0,0,0.032234
2022/06/25 01:49:00.002,n,76,1.8,1.8,2.52,10.4,73.8,1021.52,0,0,0,0,0.032234
2022/06/25 01:50:00.000,n,137,1.44,0.36,3.96,10.4,74.2,1021.52,0,0,0,0,0.034866
2022/06/25 01:51:00.000,n,114,1.8,1.44,2.16,10.4,74.5,1021.52,0,0,0,0,0.033989
2022/06/25 01:52:00.000,n,150,1.08,0.72,1.44,10.4,74.6,1021.52,0,0,0,0,0.033989
2022/06/25 01:53:00.006,n,59,1.08,0.72,1.44,10.4,75,1021.52,0,0,0,0,0.033112
2022/06/25 01:54:00.003,n,77,1.44,1.08,1.8,10.4,75,1021.52,0,0,0,0,0.032234
2022/06/25 01:55:00.000,n,118,1.44,1.44,1.8,10.4,74.9,1021.52,0,0,0,0,0.028725
2022/06/25 01:56:00.013,n,337,0.72,0.36,1.44,10.3,74.8,1021.52,0,0,0,0,0.030479
2022/06/25 01:57:00.011,n,159,1.08,0.72,1.44,10.3,74.8,1021.52,0,0,0,0,0.033112
2022/06/25 01:58:00.000,n,182,1.44,0.36,2.52,10.2,74.3,1021.52,0,0,0,0,0.02964
2022/06/25 01:59:00.000,n,186,3.96,3.24,7.56,10.2,74,1021.52,0,0,0,0,0.033112
2022/06/25 02:00:00.001,n,141,3.6,3.24,3.96,10.2,74.1,1021.52,0,0,0,0,0.026131
2022/06/25 02:01:00.000,n,235,2.88,1.8,3.24,10.2,73.9,1021.52,0,0,0,0,0.028725
2022/06/25 02:02:00.000,n,176,4.32,3.24,7.92,10.2,73.8,1021.52,0,0,0,0,0.032234
2022/06/25 02:03:00.008,n,241,1.44,1.44,1.44,10.2,73.9,1021.52,0,0,0,0,0.030479
2022/06/25 02:04:00.005,n,258,1.08,0.72,1.44,10.2,73.8,1021.52,0,0,0,0,0.02964
2022/06/25 02:05:00.003,n,271,2.16,2.16,2.52,10.2,73.9,1021.52,0,0,0,0,0.026131
2022/06/25 02:06:00.000,n,268,2.52,2.16,2.88,10.2,73.9,1021.52,0,0,0,0,0.027885
2022/06/25 02:07:00.000,n,41,0.72,0.36,0.72,10.2,73.9,1021.52,0,0,0,0,0.027008
2022/06/25 02:08:00.000,n,265,1.44,1.44,1.8,10.2,73.9,1021.52,0,0,0,0,0.028725
2022/06/25 02:09:00.000,n,241,2.52,1.8,3.24,10.2,74.1,1021.52,0,0,0,0,0.030479
2022/06/25 02:10:00.006,n,330,1.08,0.72,1.44,10.2,73.8,1021.52,0,0,0,0,0.027885
2022/06/25 02:11:00.004,n,283,2.88,2.88,2.88,10.2,74.3,1021.52,0,0,0,0,0.025291
2022/06/25 02:12:00.000,n,72,2.88,2.52,3.24,10.3,74.5,1021.52,0,0,0,0,0.027008
2022/06/25 02:13:00.000,n,272,0.72,0.36,0.72,10.3,74.3,1021.52,0,0,0,0,0.027008
2022/06/25 02:14:00.013,n,139,1.08,0.36,2.52,10.3,74.4,1021.52,0,0,0,0,0.026131
2022/06/25 02:15:00.010,n,254,2.16,2.16,2.52,10.2,74.3,1021.52,0,0,0,0,0.026131
2022/06/25 02:16:00.000,n,113,0.72,0.72,1.08,10.2,74.1,1021.52,0,0,0,0,0.026131
2022/06/25 02:17:00.000,n,241,1.08,0.72,1.08,10.2,73.9,1021.52,0,0,0,0,0.027885
2022/06/25 02:18:00.000,n,229,1.44,1.08,1.8,10.1,74,1021.52,0,0,0,0,0.028725
2022/06/25 02:19:00.000,n,279,1.8,1.44,2.52,10.1,73.8,1021.52,0,0,0,0,0.028725
2022/06/25 02:20:00.000,n,244,1.08,0,1.44,10.1,74.6,1021.52,0,0,0,0,0.027885
2022/06/25 02:21:00.008,n,81,0.36,0,0.36,10.1,74.3,1021.42,0,0,0,0,0.027885
2022/06/25 02:22:00.005,n,93,1.44,1.08,1.44,10.2,74.6,1021.42,0,0,0,0,0.025291
2022/06/25 02:23:00.003,n,168,0.72,0.36,1.08,10.2,74.4,1021.42,0,0,0,0,0.022659
2022/06/25 02:24:00.001,n,120,1.08,0.72,1.44,10.1,74.2,1021.42,0,0,0,0,0.027885
2022/06/25 02:25:00.000,n,135,1.08,0.72,1.44,10.1,74.4,1021.42,0,0,0,0,0.027885
2022/06/25 02:26:00.000,n,180,0.72,0.36,1.08,10.1,74.3,1021.42,0,0,0,0,0.026131
2022/06/25 02:27:00.000,n,125,1.44,1.08,1.44,10,74.4,1021.42,0,0,0,0,0.025291
2022/06/25 02:28:00.004,n,258,1.44,1.08,2.16,10,74.5,1021.42,0,0,0,0,0.026131
2022/06/25 02:29:00.001,n,205,0.72,0.36,1.08,10,74.4,1021.42,0,0,0,0,0.023537
2022/06/25 02:30:00.000,n,250,1.8,1.08,2.16,9.9,74.4,1021.42,0,0,0,0,0.023537
2022/06/25 02:31:00.003,n,29,0.72,0,2.16,9.9,74.9,1021.42,0,0,0,0,0.031357
2022/06/25 02:32:00.005,n,292,0.36,0.36,0.36,9.9,74.8,1021.42,0,0,0,0,0.033989
2022/06/25 02:33:00.010,n,159,0.72,0,1.44,9.9,74.9,1021.42,0,0,0,0,0.034866
2022/06/25 02:34:00.000,n,211,1.08,1.08,1.44,9.9,74.7,1021.32,0,0,0,0,0.036583
2022/06/25 02:35:00.000,n,235,1.8,1.44,1.8,9.9,74.7,1021.32,0,0,0,0,0.037498
2022/06/25 02:36:00.000,n,89,0.72,0.36,0.72,9.8,74.7,1021.42,0,0,0,0,0.038338
2022/06/25 02:37:00.000,n,188,0.36,0.36,0.72,9.8,74.9,1021.42,0,0,0,0,0.039215
2022/06/25 02:38:00.005,n,4,1.08,1.08,1.44,9.8,75.2,1021.32,0,0,0,0,0.033989
2022/06/25 02:39:00.011,n,302,0,0,0.36,9.9,75.2,1021.32,0,0,0,0,0.033989
2022/06/25 02:40:00.000,n,292,0.72,0.36,1.08,9.9,75.4,1021.32,0,0,0,0,0.035744
2022/06/25 02:41:00.005,n,110,1.08,0.72,1.44,9.9,75.7,1021.32,0,0,0,0,0.035744
2022/06/25 02:42:00.010,n,297,0.72,0.36,0.72,9.9,75.6,1021.32,0,0,0,0,0.037498
2022/06/25 02:43:00.000,n,68,2.52,2.16,2.88,9.9,75.7,1021.32,0,0,0,0,0.033989
2022/06/25 02:44:00.000,n,99,2.52,2.52,2.88,9.9,75.5,1021.32,0,0,0,0,0.02964
2022/06/25 02:45:00.000,n,38,1.08,0.72,1.8,9.9,74.6,1021.32,0,0,0,0,0.033989
2022/06/25 02:46:00.000,n,137,0.72,0.72,0.72,9.9,74.4,1021.32,0,0,0,0,0.030518
2022/06/25 02:47:00.003,n,232,1.44,1.08,3.24,9.9,74.4,1021.42,0,0,0,0,0.033989
2022/06/25 02:48:00.009,n,241,1.08,0.72,1.08,9.8,74.5,1021.32,0,0,0,0,0.030518
2022/06/25 02:49:00.000,n,263,1.8,1.44,2.88,9.8,74.6,1021.32,0,0,0,0,0.03315
2022/06/25 02:50:00.003,n,34,1.08,1.08,1.44,9.8,75.3,1021.42,0,0,0,0,0.031357
2022/06/25 02:51:00.008,n,64,1.44,1.08,1.8,9.8,75.2,1021.32,0,0,0,0,0.031357
2022/06/25 02:52:00.000,n,37,1.8,1.44,2.16,9.8,75.6,1021.32,0,0,0,0,0.030518
2022/06/25 02:53:00.002,n,39,2.16,1.44,3.6,9.9,76,1021.32,0,0,0,0,0.031357
2022/06/25 02:54:00.000,n,8,2.52,2.16,2.88,9.9,75.6,1021.32,0,0,0,0,0.031357
2022/06/25 02:55:00.000,n,71,2.52,1.8,3.24,9.9,75.5,1021.32,0,0,0,0,0.032234
2022/06/25 02:56:00.001,n,34,2.16,1.8,3.24,9.9,76,1021.32,0,0,0,0,0.030518
2022/06/25 02:57:00.007,n,45,2.16,1.08,3.24,9.9,75.7,1021.32,0,0,0,0,0.02964
2022/06/25 02:58:00.012,n,36,2.52,1.08,3.24,9.9,75.7,1021.32,0,0,0,0,0.030518
2022/06/25 02:59:00.001,n,1,2.88,1.44,3.24,10,75.3,1021.32,0,0,0,0,0.028763
2022/06/25 03:00:00.014,n,81,1.08,0.36,1.8,9.9,75.5,1021.32,0,0,0,0,0.027885
2022/06/25 03:01:00.000,n,14,2.16,2.16,2.52,9.9,75,1021.32,0,0,0,0,0.027885
2022/06/25 03:02:00.000,n,237,1.8,1.44,1.8,9.9,74.9,1021.32,0,0,0,0,0.02964
2022/06/25 03:03:00.000,n,239,2.16,1.44,3.24,9.9,74.7,1021.32,0,0,0,0,0.02964
2022/06/25 03:04:00.001,n,270,1.8,1.8,1.8,9.8,74.5,1021.32,0,0,0,0,0.027008
2022/06/25 03:05:00.007,n,280,1.44,1.44,1.8,9.8,74.4,1021.32,0,0,0,0,0.026169
2022/06/25 03:06:00.000,n,308,1.08,0.72,1.08,9.7,74.4,1021.32,0,0,0,0,0.027008
2022/06/25 03:07:00.001,n,238,1.08,0.72,1.8,9.7,74.6,1021.32,0,0,0,0,0.027008
2022/06/25 03:08:00.007,n,183,0.72,0.36,0.72,9.7,74.4,1021.32,0,0,0,0,0.027008
2022/06/25 03:09:00.011,n,131,1.44,1.08,1.8,9.7,74.7,1021.32,0,0,0,0,0.024414
2022/06/25 03:10:00.000,n,259,0.36,0,0.72,9.7,74.8,1021.32,0,0,0,0,0.027008
2022/06/25 03:11:00.000,n,175,0.36,0.36,0.36,9.7,75,1021.32,0,0,0,0,0.027885
2022/06/25 03:12:00.000,n,113,1.08,0.36,1.44,9.7,74.9,1021.22,0,0,0,0,0.02964
2022/06/25 03:13:00.000,n,102,2.16,2.16,2.52,9.7,75,1021.22,0,0,0,0,0.031357
2022/06/25 03:14:00.002,n,238,0.72,0.36,0.72,9.7,75,1021.32,0,0,0,0,0.031357
2022/06/25 03:15:00.007,n,101,1.8,1.44,2.16,9.6,75.1,1021.32,0,0,0,0,0.02964
2022/06/25 03:16:00.000,n,184,0.72,0.36,1.08,9.6,75.3,1021.32,0,0,0,0,0.02964
2022/06/25 03:17:00.001,n,49,2.16,1.8,2.52,9.6,76.1,1021.32,0,0,0,0,0.026169
2022/06/25 03:18:00.006,n,61,2.16,1.44,2.52,9.6,76.5,1021.22,0,0,0,0,0.028763
2022/06/25 03:19:00.000,n,77,1.8,1.8,2.52,9.6,76.5,1021.22,0,0,0,0,0.030518
2022/06/25 03:20:00.000,n,65,1.44,0,2.16,9.6,76.8,1021.22,0,0,0,0,0.027885
2022/06/25 03:21:00.000,n,42,2.88,2.52,2.88,9.6,76.6,1021.22,0,0,0,0,0.027885
2022/06/25 03:22:00.000,n,302,0.72,0.36,1.08,9.6,76.9,1021.22,0,0,0,0,0.024414
2022/06/25 03:23:00.000,n,13,2.16,1.08,2.16,9.6,76.9,1021.22,0,0,0,0,0.027885
2022/06/25 03:24:00.004,n,39,0.72,0.36,1.08,9.6,76.9,1021.22,0,0,0,0,0.025291
2022/06/25 03:25:00.009,n,76,1.08,0.36,1.8,9.6,77.1,1021.22,0,0,0,0,0.024414
2022/06/25 03:26:00.014,n,179,0.72,0.72,1.08,9.6,76.7,1021.22,0,0,0,0,0.025291
2022/06/25 03:27:00.003,n,26,1.08,0.72,2.16,9.6,76.7,1021.22,0,0,0,0,0.025291
2022/06/25 03:28:00.000,n,159,0.72,0.72,1.44,9.6,76.5,1021.22,0,0,0,0,0.027008
2022/06/25 03:29:00.000,n,89,0.36,0,0.72,9.6,76.4,1021.22,0,0,0,0,0.025291
2022/06/25 03:30:00.002,n,34,2.88,2.52,3.6,9.5,76.4,1021.22,0,0,0,0,0.028763
2022/06/25 03:31:00.007,n,56,1.44,0.72,2.52,9.5,76.9,1021.22,0,0,0,0,0.026169
2022/06/25 03:32:00.000,n,63,1.44,0.72,2.16,9.5,76.9,1021.22,0,0,0,0,0.025291
2022/06/25 03:33:00.002,n,12,1.44,0.72,2.16,9.5,77,1021.22,0,0,0,0,0.022659
2022/06/25 03:34:00.007,n,37,1.08,0.36,1.44,9.5,76.5,1021.22,0,0,0,0,0.026169
2022/06/25 03:35:00.012,n,28,1.44,0.72,2.88,9.5,76.8,1021.22,0,0,0,0,0.026169
2022/06/25 03:36:00.001,n,79,1.44,0.72,2.16,9.5,76.8,1021.22,0,0,0,0,0.027008
2022/06/25 03:37:00.000,n,233,2.16,2.16,2.52,9.5,76.5,1021.22,0,0,0,0,0.026169
2022/06/25 03:38:00.000,n,251,1.44,1.08,1.8,9.5,76.2,1021.22,0,0,0,0,0.026169
2022/06/25 03:39:00.002,n,234,1.08,1.08,1.44,9.5,76.1,1021.22,0,0,0,0,0.022659
2022/06/25 03:40:00.007,n,223,1.08,0.72,1.44,9.4,76.1,1021.22,0,0,0,0,0.024414
2022/06/25 03:41:00.000,n,14,1.44,0.36,1.8,9.4,76.6,1021.22,0,0,0,0,0.023537
2022/06/25 03:42:00.000,n,51,2.52,1.44,3.24,9.4,76.9,1021.22,0,0,0,0,0.025291
2022/06/25 03:43:00.006,n,318,0.72,0.36,0.72,9.5,76.7,1021.22,0,0,0,0,0.020943
2022/06/25 03:44:00.011,n,64,1.08,0,2.16,9.5,76.8,1021.22,0,0,0,0,0.022659
2022/06/25 03:45:00.001,n,58,1.44,0.72,1.8,9.5,76.4,1021.22,0,0,0,0,0.025291
2022/06/25 03:46:00.000,n,166,1.08,0.72,1.44,9.5,76.1,1021.22,0,0,0,0,0.025291
2022/06/25 03:47:00.000,n,215,1.44,1.08,2.16,9.5,75.9,1021.32,0,0,0,0,0.023537
2022/06/25 03:48:00.000,n,237,1.8,1.44,1.8,9.4,75.8,1021.32,0,0,0,0,0.016594
2022/06/25 03:49:00.005,n,247,2.16,1.44,2.16,9.4,75.7,1021.32,0,0,0,0,0.019188
2022/06/25 03:50:00.000,n,273,1.08,0.72,1.8,9.4,75.6,1021.32,0,0,0,0,0.019188
2022/06/25 03:51:00.000,n,268,1.08,1.08,1.44,9.3,75.5,1021.32,0,0,0,0,0.021782
2022/06/25 03:52:00.005,n,236,0.72,0.36,0.72,9.3,75.4,1021.32,0,0,0,0,0.022659
2022/06/25 03:53:00.010,n,250,1.44,1.08,1.8,9.3,75.4,1021.32,0,0,0,0,0.020027
2022/06/25 03:54:00.016,n,269,3.24,2.52,3.96,9.2,75.4,1021.32,0,0,0,0,0.027885
2022/06/25 03:55:00.000,n,268,2.52,2.52,2.88,9.2,75.3,1021.32,0,0,0,0,0.02964
2022/06/25 03:56:00.000,n,280,2.16,1.44,2.52,9.2,75.3,1021.32,0,0,0,0,0.033112
2022/06/25 03:57:00.000,n,262,3.24,2.88,3.6,9.2,75.2,1021.32,0,0,0,0,0.035706
2022/06/25 03:58:00.000,n,236,1.8,1.44,2.16,9.2,75.2,1021.32,0,0,0,0,0.033112
2022/06/25 03:59:00.005,n,275,2.52,2.16,3.24,9.2,75.2,1021.32,0,0,0,0,0.028763
2022/06/25 04:00:00.009,n,250,2.16,1.8,2.52,9.2,75.1,1021.32,0,0,0,0,0.033112
2022/06/25 04:01:00.000,n,223,1.44,1.08,1.8,9.2,75,1021.32,0,0,0,0,0.030479
2022/06/25 04:02:00.004,n,270,2.16,1.44,2.88,9.2,74.9,1021.32,0,0,0,0,0.033112
2022/06/25 04:03:00.010,n,255,2.16,2.16,2.52,9.2,74.9,1021.32,0,0,0,0,0.034866
2022/06/25 04:04:00.000,n,274,3.6,3.24,4.32,9.2,74.9,1021.32,0,0,0,0,0.035706
2022/06/25 04:05:00.000,n,281,1.44,1.44,1.44,9.2,74.7,1021.42,0,0,0,0,0.031357
2022/06/25 04:06:00.000,n,248,0.72,0.72,1.08,9.2,74.6,1021.32,0,0,0,0,0.02964
2022/06/25 04:07:00.000,n,235,1.8,1.44,2.16,9.2,74.9,1021.42,0,0,0,0,0.02964
2022/06/25 04:08:00.002,n,278,2.88,2.52,3.96,9.2,75,1021.42,0,0,0,0,0.031357
2022/06/25 04:09:00.007,n,0,1.08,0.36,1.44,9.2,74.8,1021.42,0,0,0,0,0.028763
2022/06/25 04:10:00.000,n,44,0.36,0.36,0.72,9.2,74.8,1021.42,0,0,0,0,0.030479
2022/06/25 04:11:00.002,n,172,0.36,0.36,0.72,9.2,75,1021.42,0,0,0,0,0.025291
2022/06/25 04:12:00.007,n,294,1.8,1.44,2.16,9.2,75.1,1021.42,0,0,0,0,0.025291
2022/06/25 04:13:00.000,n,10,0.36,0.36,1.08,9.2,75,1021.42,0,0,0,0,0.027885
2022/06/25 04:14:00.001,n,246,0.72,0.36,1.08,9.2,75.1,1021.42,0,0,0,0,0.028763
2022/06/25 04:15:00.000,n,289,1.08,0.72,1.44,9.2,74.9,1021.42,0,0,0,0,0.02964
2022/06/25 04:16:00.000,n,230,0.36,0.36,0.36,9.2,74.7,1021.42,0,0,0,0,0.028763
2022/06/25 04:17:00.000,n,298,1.44,1.08,1.8,9.2,74.8,1021.42,0,0,0,0,0.025291
2022/06/25 04:18:00.006,n,256,1.08,0.72,1.44,9.2,75.2,1021.42,0,0,0,0,0.028763
2022/06/25 04:19:00.011,n,59,2.52,2.16,3.24,9.2,75.6,1021.42,0,0,0,0,0.027008
2022/06/25 04:20:00.001,n,56,2.16,1.08,2.88,9.2,75.9,1021.42,0,0,0,0,0.027008
2022/06/25 04:21:00.006,n,80,2.16,2.16,2.52,9.2,75.9,1021.42,0,0,0,0,0.025291
2022/06/25 04:22:00.000,n,68,1.8,1.44,2.52,9.2,76.1,1021.42,0,0,0,0,0.026131
2022/06/25 04:23:00.000,n,196,0.72,0.36,0.72,9.2,75.9,1021.42,0,0,0,0,0.025291
2022/06/25 04:24:00.005,n,235,0.72,0.36,0.72,9.2,75.7,1021.42,0,0,0,0,0.026131
2022/06/25 04:25:00.000,n,265,1.44,1.44,1.8,9.1,75.6,1021.42,0,0,0,0,0.026131
2022/06/25 04:26:00.000,n,43,1.08,0.72,1.44,9.1,75.6,1021.42,0,0,0,0,0.027885
2022/06/25 04:27:00.004,n,15,1.08,0.36,1.44,9.1,76.3,1021.42,0,0,0,0,0.027008
2022/06/25 04:28:00.009,n,84,1.44,1.44,1.44,9.1,76.2,1021.42,0,0,0,0,0.022659
2022/06/25 04:29:00.000,n,202,0.72,0.36,0.72,9.1,76.4,1021.42,0,0,0,0,0.039215
2022/06/25 04:30:00.017,n,52,0.72,0.36,1.44,9.1,76.1,1021.42,0,0,0,0,0.035744
2022/06/25 04:31:00.000,n,84,1.44,0.36,2.88,9.1,76.5,1021.42,0,0,0,0,0.033112
2022/06/25 04:32:00.000,n,3,3.96,2.88,5.04,9.1,76.5,1021.42,0,0,0,0,0.034866
2022/06/25 04:33:00.002,n,100,2.16,1.8,2.16,9.1,76.4,1021.42,0,0,0,0,0.033112
2022/06/25 04:34:00.000,n,109,1.8,1.08,2.52,9.1,76.4,1021.42,0,0,0,0,0.033989
2022/06/25 04:35:00.000,n,287,1.08,0.72,1.44,9.1,76.3,1021.42,0,0,0,0,0.033112
2022/06/25 04:36:00.000,n,317,0.72,0.36,1.44,9,76.3,1021.52,0,0,0,0,0.035744
2022/06/25 04:37:00.006,n,283,2.16,1.8,2.52,9,76.3,1021.52,0,0,0,0,0.030518
2022/06/25 04:38:00.011,n,93,1.8,1.44,2.16,9,76.3,1021.52,0,0,0,0,0.031395
2022/06/25 04:39:00.001,n,238,2.16,1.8,2.52,9,76.4,1021.52,0,0,0,0,0.033112
2022/06/25 04:40:00.000,n,55,1.8,1.08,2.16,9,76.4,1021.52,0,0,0,0,0.033112
2022/06/25 04:41:00.000,n,327,0.72,0.36,1.08,9,76.6,1021.52,0,0,0,0,0.031395
2022/06/25 04:42:00.000,n,310,1.44,0.36,2.52,9,76.8,1021.52,0,0,0,0,0.031395
2022/06/25 04:43:00.004,n,274,0.72,0,1.08,9,76.9,1021.52,0,0,0,0,0.032234
2022/06/25 04:44:00.008,n,358,2.52,2.52,2.88,8.9,77.1,1021.52,0,0,0,0,0.031395
2022/06/25 04:45:00.000,n,42,2.52,1.44,3.24,9,77.7,1021.52,0,0,0,0,0.030518
2022/06/25 04:46:00.003,n,70,1.44,1.08,1.44,9,77.7,1021.52,0,0,0,0,0.033989
2022/06/25 04:47:00.008,n,112,1.8,1.44,2.16,8.9,77.7,1021.52,0,0,0,0,0.033112
2022/06/25 04:48:00.013,n,173,1.08,0.72,1.08,8.9,77.6,1021.52,0,0,0,0,0.031395
2022/06/25 04:49:00.000,n,270,2.16,1.8,2.88,8.8,77.9,1021.52,0,0,0,0,0.027885
2022/06/25 04:50:00.000,n,310,2.52,1.8,3.24,8.8,77.9,1021.52,0,0,0,0,0.028763
2022/06/25 04:51:00.000,n,37,0.36,0.36,0.72,8.8,78,1021.52,0,0,0,0,0.029602
2022/06/25 04:52:00.001,n,39,1.44,1.08,1.8,8.8,78.5,1021.62,0,0,0,0,0.029602
2022/06/25 04:53:00.006,n,68,2.52,2.16,2.88,8.8,78.4,1021.62,0,0,0,0,0.028763
2022/06/25 04:54:00.000,n,77,1.08,0.72,1.44,8.8,78.3,1021.62,0,0,0,0,0.029602
2022/06/25 04:55:00.000,n,78,1.08,0.72,1.8,8.8,78.5,1021.72,0,0,0,0,0.027885
2022/06/25 04:56:00.005,n,38,0.72,0.72,1.08,8.8,78.5,1021.72,0,0,0,0,0.027008
2022/06/25 04:57:00.010,n,27,2.16,2.16,2.52,8.7,78.6,1021.72,0,0,0,0,0.027885
2022/06/25 04:58:00.000,n,80,2.88,2.52,3.24,8.7,78.7,1021.72,0,0,0,0,0.029602